Greenville, SC

10:20 PM EDT on March 23, 2017 (GMT -0400)
Donaldson Center

Weather History for KGYH - January, 2014

Change the Weather History Date:

Tuesday, January 28, 2014

  Actual Average (KGMU) Record (KGMU)
Temperature  
Mean Temperature 30 °F -  
Max Temperature 35 °F 50 °F 77 °F (1999)
Min Temperature 24 °F 33 °F 19 °F (2004)
Degree Days  
Heating Degree Days 36    
Moisture  
Dew Point 13 °F    
Average Humidity 57    
Maximum Humidity 100    
Minimum Humidity 25    
Precipitation  
Precipitation 0.00 in - - ()
Sea Level Pressure  
Sea Level Pressure 30.13 in    
Wind  
Wind Speed 9 mph (NE)    
Max Wind Speed 16 mph    
Max Gust Speed 20 mph    
Visibility 10 miles    
Events Snow    
Averages and records for this station are not official NWS values.
T = Trace of Precipitation, MM = Missing Value Source: NWS Daily Summary

Daily Weather History Graph

Daily Weather History Graph

Search for Another Location

Airport or City:

Trip Planner

Search our weather history database for the weather conditions in past years. The results will help you decide how hot, cold, wet, or windy it might be!

Date:

Astronomy

Jan. 28, 2014 Rise Set
Actual Time 7:30 AM EST 5:54 PM EST
Civil Twilight 7:03 AM EST 6:21 PM EST
Nautical Twilight 6:33 AM EST 6:51 PM EST
Astronomical Twilight 6:03 AM EST 7:21 PM EST
Moon 5:09 AM EST (1/28) 3:44 PM EST (1/28)
Length of Visible Light 11h 17m
Length of Day
10h 24m
Waning Crescent, 7% of the Moon is Illuminated
Jan 28
Waning Crescent
Jan 30
New
Feb 6
First Quarter
Feb 14
Full
Feb 22
Last Quarter

Hourly Weather History & Observations

Time (EST) Temp. Windchill Dew Point Humidity Pressure Visibility Wind Dir Wind Speed Gust Speed Precip Events Conditions
12:15 AM 35.6 °F 29.9 °F 14.0 °F 41% 30.02 in 10.0 mi NE 6.9 mph - N/A   Clear
12:35 AM 35.6 °F 29.9 °F 12.2 °F 38% 30.01 in 10.0 mi NE 6.9 mph - N/A   Clear
12:55 AM 35.6 °F 28.0 °F 10.4 °F 35% 30.04 in 10.0 mi NE 10.4 mph - N/A   Clear
1:15 AM 33.8 °F 26.4 °F 8.6 °F 35% 30.03 in 10.0 mi NE 9.2 mph - N/A   Clear
1:35 AM 33.8 °F 27.7 °F 8.6 °F 35% 30.04 in 10.0 mi NE 6.9 mph - N/A   Clear
1:55 AM 33.8 °F 28.6 °F 8.6 °F 35% 30.05 in 10.0 mi NE 5.8 mph - N/A   Clear
2:15 AM 33.8 °F 28.6 °F 10.4 °F 38% 30.06 in 10.0 mi ENE 5.8 mph - N/A   Clear
2:35 AM 33.8 °F 27.0 °F 10.4 °F 38% 30.07 in 10.0 mi NE 8.1 mph - N/A   Clear
2:55 AM 33.8 °F 27.0 °F 10.4 °F 38% 30.08 in 10.0 mi ENE 8.1 mph - N/A   Clear
3:15 AM 32.0 °F 22.1 °F 8.6 °F 38% 30.09 in 10.0 mi ENE 13.8 mph - N/A   Clear
3:35 AM 32.0 °F 24.8 °F 8.6 °F 38% 30.09 in 10.0 mi NE 8.1 mph - N/A   Clear
3:55 AM 32.0 °F 23.0 °F 6.8 °F 35% 30.09 in 10.0 mi NE 11.5 mph - N/A   Clear
4:15 AM 32.0 °F 23.0 °F 6.8 °F 35% 30.09 in 10.0 mi NE 11.5 mph - N/A   Clear
4:35 AM 32.0 °F 23.0 °F 6.8 °F 35% 30.09 in 10.0 mi NE 11.5 mph - N/A   Clear
4:55 AM 32.0 °F 23.0 °F 6.8 °F 35% 30.10 in 10.0 mi ENE 11.5 mph - N/A   Clear
5:15 AM 32.0 °F 21.2 °F 6.8 °F 35% 30.11 in 10.0 mi ENE 16.1 mph 19.6 mph N/A   Clear
5:35 AM 32.0 °F 22.1 °F 6.8 °F 35% 30.11 in 10.0 mi ENE 13.8 mph 18.4 mph N/A   Scattered Clouds
5:55 AM 32.0 °F 22.5 °F 6.8 °F 35% 30.12 in 10.0 mi ENE 12.7 mph - N/A   Scattered Clouds
6:15 AM 32.0 °F 23.0 °F 6.8 °F 35% 30.13 in 10.0 mi ENE 11.5 mph 18.4 mph N/A   Clear
6:35 AM 32.0 °F 22.5 °F 6.8 °F 35% 30.14 in 10.0 mi ENE 12.7 mph 18.4 mph N/A   Scattered Clouds
6:47 AM 32.0 °F 23.6 °F 6.8 °F 35% 30.14 in 10.0 mi NE 10.4 mph 17.3 mph N/A   Mostly Cloudy
7:47 AM 32.0 °F 22.5 °F 5.0 °F 32% 30.16 in 10.0 mi ENE 12.7 mph 19.6 mph N/A   Clear
8:47 AM 32.0 °F 23.0 °F 3.2 °F 30% 30.19 in 10.0 mi East 11.5 mph - N/A   Overcast
9:47 AM 32.0 °F 21.2 °F -0.4 °F 25% 30.20 in 10.0 mi ENE 16.1 mph - N/A   Overcast
10:47 AM 33.8 °F 23.5 °F 1.4 °F 25% 30.24 in 10.0 mi ENE 16.1 mph - N/A   Overcast
11:47 AM 33.8 °F 26.4 °F 1.4 °F 25% 30.22 in 10.0 mi NE 9.2 mph - N/A   Overcast
2:47 PM 28.4 °F 21.2 °F 15.8 °F 59% 30.16 in 5.0 mi ENE 6.9 mph - N/A Snow Light Snow
3:14 PM 26.6 °F 19.1 °F 19.4 °F 74% 30.17 in 1.5 mi NE 6.9 mph - N/A Snow Light Snow
3:47 PM 26.6 °F 19.1 °F 23.0 °F 86% 30.17 in - NE 6.9 mph - N/A Snow Light Snow
4:47 PM 24.8 °F 16.9 °F 24.8 °F 100% 30.16 in - NE 6.9 mph - N/A Snow Light Snow
5:47 PM 24.8 °F 14.6 °F 23.0 °F 93% 30.15 in - NE 10.4 mph - N/A Snow Light Snow
6:47 PM 24.8 °F 14.6 °F 23.0 °F 93% 30.15 in - ENE 10.4 mph - N/A Snow Light Snow
7:47 PM 24.8 °F 15.3 °F 23.0 °F 93% 30.17 in - NE 9.2 mph - N/A Snow Light Snow
8:15 PM 24.8 °F 16.1 °F 23.0 °F 93% 30.18 in 10.0 mi ENE 8.1 mph - N/A   Overcast
8:35 PM 24.8 °F 16.9 °F 23.0 °F 93% 30.18 in 10.0 mi NE 6.9 mph - N/A Snow Light Snow
8:47 PM 24.8 °F 16.9 °F 23.0 °F 93% 30.18 in - ENE 6.9 mph - N/A   Overcast
8:55 PM 24.8 °F 16.9 °F 21.2 °F 86% 30.18 in 10.0 mi ENE 6.9 mph - N/A   Overcast
9:15 PM 24.8 °F 16.1 °F 21.2 °F 86% 30.18 in 10.0 mi ENE 8.1 mph - N/A   Overcast
9:35 PM 24.8 °F 16.1 °F 21.2 °F 86% 30.18 in 10.0 mi NE 8.1 mph - N/A   Overcast
9:55 PM 24.8 °F 16.9 °F 21.2 °F 86% 30.18 in 10.0 mi NE 6.9 mph - N/A   Overcast
10:15 PM 24.8 °F 16.1 °F 21.2 °F 86% 30.18 in 10.0 mi ENE 8.1 mph - N/A   Overcast
10:35 PM 24.8 °F 16.9 °F 21.2 °F 86% 30.17 in 10.0 mi ENE 6.9 mph - N/A   Overcast
10:55 PM 24.8 °F 15.3 °F 19.4 °F 80% 30.17 in 10.0 mi ENE 9.2 mph - N/A   Overcast
11:15 PM 24.8 °F 16.9 °F 19.4 °F 80% 30.17 in 10.0 mi NE 6.9 mph - N/A   Overcast
11:35 PM 24.8 °F 16.9 °F 19.4 °F 80% 30.18 in 10.0 mi NE 6.9 mph - N/A   Overcast
11:55 PM 24.8 °F 16.9 °F 19.4 °F 80% 30.18 in 10.0 mi ENE 6.9 mph - N/A   Overcast